Year,Month,Day,Hour,Minute,Value (Times are PST for temperature in C)
2014,03,05,00,00,1.60
2014,03,05,00,01,1.60
2014,03,05,00,02,1.60
2014,03,05,00,03,1.60
2014,03,05,00,04,1.60
2014,03,05,00,05,1.60
2014,03,05,00,06,1.60
2014,03,05,00,07,1.60
2014,03,05,00,08,1.60
2014,03,05,00,09,1.60
2014,03,05,00,10,1.60
2014,03,05,00,11,1.60
2014,03,05,00,12,1.60
2014,03,05,00,13,1.60
2014,03,05,00,14,1.60
2014,03,05,00,15,1.60
2014,03,05,00,16,1.60
2014,03,05,00,17,1.60
2014,03,05,00,18,1.60
2014,03,05,00,19,1.60
2014,03,05,00,20,1.60
2014,03,05,00,21,1.60
2014,03,05,00,22,1.60
2014,03,05,00,23,1.60
2014,03,05,00,24,1.60
2014,03,05,00,25,1.60
2014,03,05,00,26,1.60
2014,03,05,00,27,1.60
2014,03,05,00,28,1.60
2014,03,05,00,29,1.60
2014,03,05,00,30,1.60
2014,03,05,00,31,1.60
2014,03,05,00,32,1.60
2014,03,05,00,33,1.60
2014,03,05,00,34,1.60
2014,03,05,00,35,1.60
2014,03,05,00,36,1.60
2014,03,05,00,37,1.60
2014,03,05,00,38,1.60
2014,03,05,00,39,1.60
2014,03,05,00,40,1.60
2014,03,05,00,41,1.60
2014,03,05,00,42,1.60
2014,03,05,00,43,1.60
2014,03,05,00,44,1.60
2014,03,05,00,45,1.60
2014,03,05,00,46,1.60
2014,03,05,00,47,1.60
2014,03,05,00,48,1.60
2014,03,05,00,49,1.60
2014,03,05,00,50,1.60
2014,03,05,00,51,1.60
2014,03,05,00,52,1.60
2014,03,05,00,53,1.60
2014,03,05,00,54,1.60
2014,03,05,00,55,1.60
2014,03,05,00,56,1.60
2014,03,05,00,57,1.60
2014,03,05,00,58,1.60
2014,03,05,00,59,1.60
2014,03,05,01,00,1.60
2014,03,05,01,01,1.60
2014,03,05,01,02,1.60
2014,03,05,01,03,1.60
2014,03,05,01,04,1.60
2014,03,05,01,05,1.60
2014,03,05,01,06,1.60
2014,03,05,01,07,1.60
2014,03,05,01,08,1.60
2014,03,05,01,09,1.60
2014,03,05,01,10,1.60
2014,03,05,01,11,1.60
2014,03,05,01,12,1.60
2014,03,05,01,13,1.60
2014,03,05,01,14,1.70
2014,03,05,01,15,1.60
2014,03,05,01,16,1.70
2014,03,05,01,17,1.60
2014,03,05,01,18,1.60
2014,03,05,01,19,1.60
2014,03,05,01,20,1.60
2014,03,05,01,21,1.60
2014,03,05,01,22,1.60
2014,03,05,01,23,1.60
2014,03,05,01,24,1.60
2014,03,05,01,25,1.60
2014,03,05,01,26,1.60
2014,03,05,01,27,1.60
2014,03,05,01,28,1.60
2014,03,05,01,29,1.60
2014,03,05,01,30,1.60
2014,03,05,01,31,1.60
2014,03,05,01,32,1.60
2014,03,05,01,33,1.60
2014,03,05,01,34,1.60
2014,03,05,01,35,1.60
2014,03,05,01,36,1.60
2014,03,05,01,37,1.60
2014,03,05,01,38,1.60
2014,03,05,01,39,1.60
2014,03,05,01,40,1.60
2014,03,05,01,41,1.60
2014,03,05,01,42,1.60
2014,03,05,01,43,1.60
2014,03,05,01,44,1.60
2014,03,05,01,45,1.60
2014,03,05,01,46,1.60
2014,03,05,01,47,1.60
2014,03,05,01,48,1.60
2014,03,05,01,49,1.60
2014,03,05,01,50,1.60
2014,03,05,01,51,1.60
2014,03,05,01,52,1.60
2014,03,05,01,53,1.60
2014,03,05,01,54,1.60
2014,03,05,01,55,1.60
2014,03,05,01,56,1.60
2014,03,05,01,57,1.60
2014,03,05,01,58,1.60
2014,03,05,01,59,1.60
2014,03,05,02,00,1.60
2014,03,05,02,01,1.60
2014,03,05,02,02,1.60
2014,03,05,02,03,1.60
2014,03,05,02,04,1.60
2014,03,05,02,05,1.60
2014,03,05,02,06,1.60
2014,03,05,02,07,1.60
2014,03,05,02,08,1.60
2014,03,05,02,09,1.60
2014,03,05,02,10,1.60
2014,03,05,02,11,1.60
2014,03,05,02,12,1.60
2014,03,05,02,13,1.60
2014,03,05,02,14,1.60
2014,03,05,02,15,1.60
2014,03,05,02,16,1.60
2014,03,05,02,17,1.60
2014,03,05,02,18,1.60
2014,03,05,02,19,1.60
2014,03,05,02,20,1.60
2014,03,05,02,21,1.60
2014,03,05,02,22,1.60
2014,03,05,02,23,1.60
2014,03,05,02,24,1.60
2014,03,05,02,25,1.60
2014,03,05,02,26,1.60
2014,03,05,02,27,1.60
2014,03,05,02,28,1.60
2014,03,05,02,29,1.60
2014,03,05,02,30,1.60
2014,03,05,02,31,1.60
2014,03,05,02,32,1.60
2014,03,05,02,33,1.60
2014,03,05,02,34,1.50
2014,03,05,02,35,1.50
2014,03,05,02,36,1.50
2014,03,05,02,37,1.50
2014,03,05,02,38,1.50
2014,03,05,02,39,1.50
2014,03,05,02,40,1.50
2014,03,05,02,41,1.50
2014,03,05,02,42,1.50
2014,03,05,02,43,1.50
2014,03,05,02,44,1.50
2014,03,05,02,45,1.50
2014,03,05,02,46,1.50
2014,03,05,02,47,1.50
2014,03,05,02,48,1.50
2014,03,05,02,49,1.50
2014,03,05,02,50,1.50
2014,03,05,02,51,1.50
2014,03,05,02,52,1.50
2014,03,05,02,53,1.50
2014,03,05,02,54,1.50
2014,03,05,02,55,1.50
2014,03,05,02,56,1.50
2014,03,05,02,57,1.50
2014,03,05,02,58,1.50
2014,03,05,02,59,1.50
2014,03,05,03,00,1.50
2014,03,05,03,01,1.50
2014,03,05,03,02,1.50
2014,03,05,03,03,1.50
2014,03,05,03,06,1.50
2014,03,05,03,07,1.60
2014,03,05,03,08,1.60
2014,03,05,03,09,1.60
2014,03,05,03,10,1.60
2014,03,05,03,11,1.60
2014,03,05,03,12,1.60
2014,03,05,03,13,1.60
2014,03,05,03,14,1.60
2014,03,05,03,15,1.60
2014,03,05,03,16,1.60
2014,03,05,03,17,1.60
2014,03,05,03,18,1.60
2014,03,05,03,19,1.60
2014,03,05,03,20,1.60
2014,03,05,03,21,1.60
2014,03,05,03,22,1.50
2014,03,05,03,23,1.50
2014,03,05,03,24,1.50
2014,03,05,03,25,1.50
2014,03,05,03,26,1.50
2014,03,05,03,27,1.50
2014,03,05,03,28,1.50
2014,03,05,03,29,1.50
2014,03,05,03,30,1.50
2014,03,05,03,31,1.50
2014,03,05,03,32,1.50
2014,03,05,03,33,1.50
2014,03,05,03,34,1.50
2014,03,05,03,35,1.50
2014,03,05,03,36,1.50
2014,03,05,03,37,1.50
2014,03,05,03,38,1.50
2014,03,05,03,39,1.50
2014,03,05,03,40,1.60
2014,03,05,03,41,1.50
2014,03,05,03,42,1.50
2014,03,05,03,43,1.60
2014,03,05,03,44,1.50
2014,03,05,03,45,1.60
2014,03,05,03,46,1.60
2014,03,05,03,47,1.60
2014,03,05,03,48,1.60
2014,03,05,03,49,1.60
2014,03,05,03,50,1.60
2014,03,05,03,51,1.60
2014,03,05,03,52,1.60
2014,03,05,03,53,1.60
2014,03,05,03,54,1.60
2014,03,05,03,55,1.60
2014,03,05,03,56,1.60
2014,03,05,03,57,1.60
2014,03,05,03,58,1.60
2014,03,05,03,59,1.70
2014,03,05,04,00,1.70
2014,03,05,04,01,1.70
2014,03,05,04,02,1.70
2014,03,05,04,03,1.70
2014,03,05,04,04,1.70
2014,03,05,04,05,1.70
2014,03,05,04,06,1.70
2014,03,05,04,07,1.70
2014,03,05,04,08,1.70
2014,03,05,04,09,1.70
2014,03,05,04,10,1.70
2014,03,05,04,11,1.70
2014,03,05,04,12,1.70
2014,03,05,04,13,1.70
2014,03,05,04,14,1.70
2014,03,05,04,15,1.70
2014,03,05,04,16,1.70
2014,03,05,04,17,1.70
2014,03,05,04,18,1.70
2014,03,05,04,19,1.70
2014,03,05,04,20,1.70
2014,03,05,04,21,1.70
2014,03,05,04,22,1.70
2014,03,05,04,23,1.70
2014,03,05,04,24,1.70
2014,03,05,04,25,1.70
2014,03,05,04,26,1.70
2014,03,05,04,27,1.70
2014,03,05,04,28,1.70
2014,03,05,04,29,1.70
2014,03,05,04,30,1.70
2014,03,05,04,31,1.70
2014,03,05,04,32,1.70
2014,03,05,04,33,1.70
2014,03,05,04,34,1.70
2014,03,05,04,35,1.70
2014,03,05,04,36,1.60
2014,03,05,04,37,1.60
2014,03,05,04,38,1.60
2014,03,05,04,39,1.60
2014,03,05,04,40,1.60
2014,03,05,04,41,1.60
2014,03,05,04,42,1.60
2014,03,05,04,43,1.60
2014,03,05,04,44,1.60
2014,03,05,04,45,1.60
2014,03,05,04,46,1.60
2014,03,05,04,47,1.60
2014,03,05,04,48,1.60
2014,03,05,04,49,1.60
2014,03,05,04,50,1.60
2014,03,05,04,51,1.60
2014,03,05,04,52,1.60
2014,03,05,04,53,1.60
2014,03,05,04,54,1.60
2014,03,05,04,55,1.60
2014,03,05,04,56,1.60
2014,03,05,04,57,1.60
2014,03,05,04,58,1.60
2014,03,05,04,59,1.60
2014,03,05,05,00,1.60
2014,03,05,05,01,1.60
2014,03,05,05,02,1.60
2014,03,05,05,03,1.60
2014,03,05,05,04,1.60
2014,03,05,05,05,1.60
2014,03,05,05,06,1.60
2014,03,05,05,07,1.60
2014,03,05,05,08,1.60
2014,03,05,05,09,1.60
2014,03,05,05,10,1.60
2014,03,05,05,11,1.60
2014,03,05,05,12,1.60
2014,03,05,05,13,1.60
2014,03,05,05,14,1.60
2014,03,05,05,15,1.60
2014,03,05,05,16,1.60
2014,03,05,05,17,1.60
2014,03,05,05,18,1.60
2014,03,05,05,19,1.60
2014,03,05,05,20,1.60
2014,03,05,05,21,1.60
2014,03,05,05,22,1.60
2014,03,05,05,23,1.60
2014,03,05,05,24,1.60
2014,03,05,05,25,1.60
2014,03,05,05,26,1.60
2014,03,05,05,27,1.60
2014,03,05,05,28,1.60
2014,03,05,05,29,1.60
2014,03,05,05,30,1.60
2014,03,05,05,31,1.60
2014,03,05,05,32,1.60
2014,03,05,05,33,1.60
2014,03,05,05,34,1.60
2014,03,05,05,35,1.60
2014,03,05,05,36,1.60
2014,03,05,05,37,1.60
2014,03,05,05,38,1.60
2014,03,05,05,39,1.60
2014,03,05,05,40,1.60
2014,03,05,05,41,1.60
2014,03,05,05,42,1.60
2014,03,05,05,43,1.60
2014,03,05,05,44,1.60
2014,03,05,05,45,1.70
2014,03,05,05,46,1.70
2014,03,05,05,47,1.70
2014,03,05,05,48,1.70
2014,03,05,05,49,1.70
2014,03,05,05,50,1.70
2014,03,05,05,51,1.70
2014,03,05,05,52,1.70
2014,03,05,05,53,1.70
2014,03,05,05,54,1.70
2014,03,05,05,55,1.70
2014,03,05,05,56,1.70
2014,03,05,05,57,1.70
2014,03,05,05,58,1.70
2014,03,05,05,59,1.70
2014,03,05,06,00,1.70
2014,03,05,06,01,1.70
2014,03,05,06,02,1.70
2014,03,05,06,03,1.80
2014,03,05,06,04,1.80
2014,03,05,06,05,1.80
2014,03,05,06,06,1.80
2014,03,05,06,07,1.80
2014,03,05,06,08,1.80
2014,03,05,06,09,1.80
2014,03,05,06,10,1.80
2014,03,05,06,11,1.80
2014,03,05,06,12,1.80
2014,03,05,06,13,1.80
2014,03,05,06,14,1.80
2014,03,05,06,15,1.80
2014,03,05,06,16,1.80
2014,03,05,06,17,1.80
2014,03,05,06,18,1.80
2014,03,05,06,19,1.90
2014,03,05,06,20,1.90
2014,03,05,06,21,1.90
2014,03,05,06,22,1.90
2014,03,05,06,23,1.90
2014,03,05,06,24,1.90
2014,03,05,06,25,1.90
2014,03,05,06,26,1.90
2014,03,05,06,27,1.90
2014,03,05,06,28,1.90
2014,03,05,06,29,1.90
2014,03,05,06,30,1.90
2014,03,05,06,31,1.90
2014,03,05,06,32,2.00
2014,03,05,06,33,2.00
2014,03,05,06,34,2.00
2014,03,05,06,35,2.00
2014,03,05,06,36,2.00
2014,03,05,06,37,2.00
2014,03,05,06,38,2.00
2014,03,05,06,39,2.00
2014,03,05,06,40,2.00
2014,03,05,06,41,2.10
2014,03,05,06,42,2.10
2014,03,05,06,43,2.10
2014,03,05,06,44,2.10
2014,03,05,06,45,2.10
2014,03,05,06,46,2.10
2014,03,05,06,47,2.10
2014,03,05,06,48,2.10
2014,03,05,06,49,2.10
2014,03,05,06,50,2.10
2014,03,05,06,51,2.10
2014,03,05,06,52,2.10
2014,03,05,06,53,2.00
2014,03,05,06,54,2.00
2014,03,05,06,55,2.00
2014,03,05,06,56,2.00
2014,03,05,06,57,2.00
2014,03,05,06,58,2.00
2014,03,05,06,59,2.00
2014,03,05,07,00,2.00
2014,03,05,07,01,2.00
2014,03,05,07,02,2.00
2014,03,05,07,03,1.90
2014,03,05,07,04,1.90
2014,03,05,07,05,1.90
2014,03,05,07,06,1.90
2014,03,05,07,07,1.90
2014,03,05,07,08,2.00
2014,03,05,07,09,2.00
2014,03,05,07,10,2.00
2014,03,05,07,11,2.00
2014,03,05,07,12,2.00
2014,03,05,07,13,2.00
2014,03,05,07,14,2.00
2014,03,05,07,15,2.00
2014,03,05,07,16,2.10
2014,03,05,07,17,2.10
2014,03,05,07,18,2.10
2014,03,05,07,19,2.10
2014,03,05,07,20,2.10
2014,03,05,07,21,2.10
2014,03,05,07,22,2.10
2014,03,05,07,23,2.10
2014,03,05,07,24,2.10
2014,03,05,07,25,2.10
2014,03,05,07,26,2.10
2014,03,05,07,27,2.10
2014,03,05,07,28,2.10
2014,03,05,07,29,2.20
2014,03,05,07,30,2.20
2014,03,05,07,31,2.20
2014,03,05,07,32,2.20
2014,03,05,07,33,2.20
2014,03,05,07,34,2.30
2014,03,05,07,35,2.30
2014,03,05,07,36,2.30
2014,03,05,07,37,2.30
2014,03,05,07,38,2.30
2014,03,05,07,39,2.30
2014,03,05,07,40,2.30
2014,03,05,07,41,2.30
2014,03,05,07,42,2.30
2014,03,05,07,43,2.30
2014,03,05,07,44,2.30
2014,03,05,07,45,2.30
2014,03,05,07,46,2.30
2014,03,05,07,47,2.30
2014,03,05,07,48,2.30
2014,03,05,07,49,2.30
2014,03,05,07,50,2.30
2014,03,05,07,51,2.30
2014,03,05,07,52,2.30
2014,03,05,07,53,2.30
2014,03,05,07,54,2.30
2014,03,05,07,55,2.40
2014,03,05,07,56,2.40
2014,03,05,07,57,2.30
2014,03,05,07,58,2.30
2014,03,05,07,59,2.30
2014,03,05,08,00,2.30
2014,03,05,08,01,2.30
2014,03,05,08,02,2.30
2014,03,05,08,03,2.30
2014,03,05,08,04,2.30
2014,03,05,08,05,2.30
2014,03,05,08,06,2.30
2014,03,05,08,07,2.30
2014,03,05,08,08,2.30
2014,03,05,08,09,2.30
2014,03,05,08,10,2.30
2014,03,05,08,11,2.30
2014,03,05,08,12,2.30
2014,03,05,08,13,2.30
2014,03,05,08,14,2.30
2014,03,05,08,15,2.30
2014,03,05,08,16,2.30
2014,03,05,08,17,2.40
2014,03,05,08,18,2.40
2014,03,05,08,19,2.40
2014,03,05,08,20,2.40
2014,03,05,08,21,2.40
2014,03,05,08,22,2.40
2014,03,05,08,23,2.40
2014,03,05,08,24,2.50
2014,03,05,08,25,2.40
2014,03,05,08,26,2.50
2014,03,05,08,27,2.50
2014,03,05,08,28,2.50
2014,03,05,08,29,2.50
2014,03,05,08,30,2.50
2014,03,05,08,31,2.60
2014,03,05,08,32,2.60
2014,03,05,08,33,2.60
2014,03,05,08,34,2.60
2014,03,05,08,35,2.60
2014,03,05,08,36,2.60
2014,03,05,08,37,2.70
2014,03,05,08,38,2.70
2014,03,05,08,39,2.70
2014,03,05,08,40,2.70
2014,03,05,08,41,2.70
2014,03,05,08,42,2.70
2014,03,05,08,43,2.70
2014,03,05,08,44,2.70
2014,03,05,08,45,2.80
2014,03,05,08,46,2.80
2014,03,05,08,47,2.80
2014,03,05,08,48,2.80
2014,03,05,08,49,2.80
2014,03,05,08,50,2.80
2014,03,05,08,51,2.80
2014,03,05,08,52,2.90
2014,03,05,08,53,2.90
2014,03,05,08,54,2.90
2014,03,05,08,55,2.90
2014,03,05,08,56,2.90
2014,03,05,08,57,2.90
2014,03,05,08,58,2.90
2014,03,05,08,59,2.90
2014,03,05,09,00,3.00
2014,03,05,09,01,3.00
2014,03,05,09,02,3.00
2014,03,05,09,03,3.00
2014,03,05,09,04,3.10
2014,03,05,09,05,3.10
2014,03,05,09,06,3.10
2014,03,05,09,07,3.10
2014,03,05,09,08,3.10
2014,03,05,09,09,3.10
2014,03,05,09,10,3.20
2014,03,05,09,11,3.20
2014,03,05,09,12,3.20
2014,03,05,09,13,3.20
2014,03,05,09,14,3.20
2014,03,05,09,15,3.20
2014,03,05,09,16,3.20
2014,03,05,09,17,3.30
2014,03,05,09,18,3.30
2014,03,05,09,19,3.30
2014,03,05,09,20,3.30
2014,03,05,09,21,3.30
2014,03,05,09,22,3.30
2014,03,05,09,23,3.30
2014,03,05,09,24,3.30
2014,03,05,09,25,3.30
2014,03,05,09,26,3.40
2014,03,05,09,27,3.40
2014,03,05,09,28,3.40
2014,03,05,09,29,3.40
2014,03,05,09,30,3.50
2014,03,05,09,31,3.50
2014,03,05,09,32,3.50
2014,03,05,09,33,3.60
2014,03,05,09,34,3.60
2014,03,05,09,35,3.60
2014,03,05,09,36,3.70
2014,03,05,09,37,3.70
2014,03,05,09,38,3.70
2014,03,05,09,39,3.80
2014,03,05,09,40,3.80
2014,03,05,09,41,3.80
2014,03,05,09,42,3.90
2014,03,05,09,43,3.90
2014,03,05,09,44,3.90
2014,03,05,09,45,3.90
2014,03,05,09,46,3.90
2014,03,05,09,47,3.90
2014,03,05,09,48,3.90
2014,03,05,09,49,3.90
2014,03,05,09,50,3.90
2014,03,05,09,51,3.90
2014,03,05,09,52,3.90
2014,03,05,09,53,3.90
2014,03,05,09,54,3.90
2014,03,05,09,55,4.00
2014,03,05,09,56,4.00
2014,03,05,09,57,4.00
2014,03,05,09,58,4.10
2014,03,05,09,59,4.10
2014,03,05,10,00,4.10
2014,03,05,10,01,4.10
2014,03,05,10,02,4.20
2014,03,05,10,03,4.20
2014,03,05,10,04,4.20
2014,03,05,10,05,4.30
2014,03,05,10,06,4.30
2014,03,05,10,07,4.40
2014,03,05,10,08,4.50
2014,03,05,10,09,4.50
2014,03,05,10,10,4.60
2014,03,05,10,11,4.60
2014,03,05,10,12,4.70
2014,03,05,10,13,4.70
2014,03,05,10,14,4.70
2014,03,05,10,15,4.80
2014,03,05,10,16,4.80
2014,03,05,10,17,4.80
2014,03,05,10,18,4.80
2014,03,05,10,19,4.80
2014,03,05,10,20,4.80
2014,03,05,10,21,4.90
2014,03,05,10,22,4.90
2014,03,05,10,23,4.90
2014,03,05,10,24,4.90
2014,03,05,10,25,5.00
2014,03,05,10,26,5.00
2014,03,05,10,27,5.00
2014,03,05,10,28,5.00
2014,03,05,10,29,5.10
2014,03,05,10,30,5.10
2014,03,05,10,31,5.10
2014,03,05,10,32,5.10
2014,03,05,10,33,5.10
2014,03,05,10,34,5.20
2014,03,05,10,35,5.20
2014,03,05,10,36,5.20
2014,03,05,10,37,5.30
2014,03,05,10,38,5.40
2014,03,05,10,39,5.50
2014,03,05,10,40,5.60
2014,03,05,10,41,5.70
2014,03,05,10,42,5.80
2014,03,05,10,43,6.00
2014,03,05,10,44,6.10
2014,03,05,10,45,6.30
2014,03,05,10,46,6.50
2014,03,05,10,47,6.60
2014,03,05,10,48,6.70
2014,03,05,10,49,6.70
2014,03,05,10,50,6.70
2014,03,05,10,51,6.80
2014,03,05,10,52,6.80
2014,03,05,10,53,6.90
2014,03,05,10,54,6.90
2014,03,05,10,55,7.00
2014,03,05,10,56,7.00
2014,03,05,10,57,7.10
2014,03,05,10,58,7.00
2014,03,05,10,59,7.00
2014,03,05,11,00,7.00
2014,03,05,11,01,7.00
2014,03,05,11,02,7.00
2014,03,05,11,03,7.10
2014,03,05,11,04,7.10
2014,03,05,11,05,7.20
2014,03,05,11,06,7.20
2014,03,05,11,07,7.30
2014,03,05,11,08,7.40
2014,03,05,11,09,7.60
2014,03,05,11,10,7.60
2014,03,05,11,11,7.70
2014,03,05,11,12,7.80
2014,03,05,11,13,7.80
2014,03,05,11,14,7.80
2014,03,05,11,15,7.80
2014,03,05,11,16,7.80
2014,03,05,11,17,7.80
2014,03,05,11,18,7.80
2014,03,05,11,19,7.70
2014,03,05,11,20,7.60
2014,03,05,11,21,7.60
2014,03,05,11,22,7.60
2014,03,05,11,23,7.60
2014,03,05,11,24,7.70
2014,03,05,11,25,7.70
2014,03,05,11,26,7.70
2014,03,05,11,27,7.80
2014,03,05,11,28,7.80
2014,03,05,11,29,7.80
2014,03,05,11,30,7.80
2014,03,05,11,31,7.80
2014,03,05,11,32,7.90
2014,03,05,11,33,7.90
2014,03,05,11,34,8.00
2014,03,05,11,35,8.10
2014,03,05,11,36,8.20
2014,03,05,11,37,8.30
2014,03,05,11,38,8.40
2014,03,05,11,39,8.50
2014,03,05,11,40,8.60
2014,03,05,11,41,8.60
2014,03,05,11,42,8.70
2014,03,05,11,43,8.70
2014,03,05,11,44,8.80
2014,03,05,11,45,8.80
2014,03,05,11,46,8.80
2014,03,05,11,47,8.80
2014,03,05,11,48,8.80
2014,03,05,11,49,8.90
2014,03,05,11,50,8.90
2014,03,05,11,51,9.00
2014,03,05,11,52,9.10
2014,03,05,11,53,9.10
2014,03,05,11,54,9.10
2014,03,05,11,55,9.10
2014,03,05,11,56,9.20
2014,03,05,11,57,9.20
2014,03,05,11,58,9.20
2014,03,05,11,59,9.20
2014,03,05,12,00,9.10
2014,03,05,12,01,9.10
2014,03,05,12,02,9.20
2014,03,05,12,03,9.30
2014,03,05,12,04,9.30
2014,03,05,12,05,9.40
2014,03,05,12,06,9.40
2014,03,05,12,07,9.40
2014,03,05,12,08,9.40
2014,03,05,12,09,9.50
2014,03,05,12,10,9.50
2014,03,05,12,11,9.50
2014,03,05,12,12,9.50
2014,03,05,12,13,9.50
2014,03,05,12,14,9.50
2014,03,05,12,15,9.50
2014,03,05,12,16,9.60
2014,03,05,12,17,9.60
2014,03,05,12,18,9.60
2014,03,05,12,19,9.70
2014,03,05,12,20,9.80
2014,03,05,12,21,9.80
2014,03,05,12,22,9.90
2014,03,05,12,23,9.90
2014,03,05,12,24,10.00
2014,03,05,12,25,10.10
2014,03,05,12,26,10.10
2014,03,05,12,27,10.20
2014,03,05,12,28,10.20
2014,03,05,12,29,10.20
2014,03,05,12,30,10.20
2014,03,05,12,31,10.20
2014,03,05,12,32,10.20
2014,03,05,12,33,10.20
2014,03,05,12,34,10.20
2014,03,05,12,35,10.20
2014,03,05,12,36,10.20
2014,03,05,12,37,10.30
2014,03,05,12,38,10.30
2014,03,05,12,39,10.40
2014,03,05,12,40,10.40
2014,03,05,12,41,10.40
2014,03,05,12,42,10.40
2014,03,05,12,43,10.40
2014,03,05,12,44,10.40
2014,03,05,12,45,10.30
2014,03,05,12,46,10.30
2014,03,05,12,47,10.20
2014,03,05,12,48,10.10
2014,03,05,12,49,10.00
2014,03,05,12,50,10.00
2014,03,05,12,51,9.90
2014,03,05,12,52,9.80
2014,03,05,12,53,9.80
2014,03,05,12,54,9.70
2014,03,05,12,55,9.70
2014,03,05,12,56,9.60
2014,03,05,12,57,9.60
2014,03,05,12,58,9.50
2014,03,05,12,59,9.40
2014,03,05,13,00,9.40
2014,03,05,13,01,9.30
2014,03,05,13,02,9.30
2014,03,05,13,03,9.30
2014,03,05,13,04,9.20
2014,03,05,13,05,9.10
2014,03,05,13,06,9.10
2014,03,05,13,07,9.00
2014,03,05,13,08,8.90
2014,03,05,13,09,8.90
2014,03,05,13,10,8.80
2014,03,05,13,11,8.80
2014,03,05,13,12,8.80
2014,03,05,13,13,8.80
2014,03,05,13,14,8.80
2014,03,05,13,15,8.80
2014,03,05,13,16,8.80
2014,03,05,13,17,8.80
2014,03,05,13,18,8.80
2014,03,05,13,19,8.80
2014,03,05,13,20,8.70
2014,03,05,13,21,8.70
2014,03,05,13,22,8.70
2014,03,05,13,23,8.70
2014,03,05,13,24,8.70
2014,03,05,13,25,8.70
2014,03,05,13,26,8.70
2014,03,05,13,27,8.70
2014,03,05,13,28,8.70
2014,03,05,13,29,8.70
2014,03,05,13,30,8.70
2014,03,05,13,31,8.70
2014,03,05,13,32,8.70
2014,03,05,14,52,7.80
2014,03,05,14,53,7.80
2014,03,05,14,54,7.80
2014,03,05,14,55,7.80
2014,03,05,14,56,7.80
2014,03,05,14,57,7.80
2014,03,05,14,58,7.80
2014,03,05,14,59,7.80
2014,03,05,15,00,7.80
2014,03,05,15,01,7.80
2014,03,05,15,02,7.80
2014,03,05,15,03,7.80
2014,03,05,15,04,7.80
2014,03,05,15,05,7.80
2014,03,05,15,06,7.80
2014,03,05,15,07,7.80
2014,03,05,15,08,7.80
2014,03,05,15,09,7.80
2014,03,05,15,10,7.80
2014,03,05,15,11,7.80
2014,03,05,15,12,7.80
2014,03,05,15,13,7.80
2014,03,05,15,14,7.80
2014,03,05,15,15,7.80
2014,03,05,15,16,7.80
2014,03,05,15,17,7.80
2014,03,05,15,18,7.80
2014,03,05,15,19,7.80
2014,03,05,15,20,7.80
2014,03,05,15,21,7.80
2014,03,05,15,22,7.80
2014,03,05,15,23,7.80
2014,03,05,15,24,7.80
2014,03,05,15,25,7.80
2014,03,05,15,26,7.80
2014,03,05,15,27,7.80
2014,03,05,15,28,7.80
2014,03,05,15,29,7.80
2014,03,05,15,30,7.80
2014,03,05,15,31,7.80
2014,03,05,15,32,7.80
2014,03,05,15,33,7.80
2014,03,05,15,34,7.80
2014,03,05,15,35,7.70
2014,03,05,15,36,7.70
2014,03,05,15,37,7.70
2014,03,05,15,38,7.70
2014,03,05,15,39,7.70
2014,03,05,15,40,7.70
2014,03,05,15,41,7.70
2014,03,05,15,42,7.70
2014,03,05,15,43,7.70
2014,03,05,15,44,7.70
2014,03,05,15,45,7.70
2014,03,05,15,46,7.70
2014,03,05,15,47,7.80
2014,03,05,15,48,7.80
2014,03,05,15,49,7.80
2014,03,05,15,50,7.80
2014,03,05,15,51,7.80
2014,03,05,15,52,7.80
2014,03,05,15,53,7.80
2014,03,05,15,54,7.70
2014,03,05,15,55,7.70
2014,03,05,15,56,7.70
2014,03,05,15,57,7.70
2014,03,05,15,58,7.70
2014,03,05,15,59,7.70
2014,03,05,16,00,7.70
2014,03,05,16,01,7.70
2014,03,05,16,02,7.70
2014,03,05,16,03,7.70
2014,03,05,16,04,7.70
2014,03,05,16,05,7.70
2014,03,05,16,06,7.70
2014,03,05,16,07,7.60
2014,03,05,16,08,7.60
2014,03,05,16,09,7.60
2014,03,05,16,10,7.60
2014,03,05,16,11,7.60
2014,03,05,16,12,7.60
2014,03,05,16,13,7.60
2014,03,05,16,14,7.60
2014,03,05,16,15,7.60
2014,03,05,16,16,7.60
2014,03,05,16,17,7.60
2014,03,05,16,18,7.60
2014,03,05,16,19,7.60
2014,03,05,16,20,7.60
2014,03,05,16,21,7.60
2014,03,05,16,22,7.70
2014,03,05,16,23,7.70
2014,03,05,16,24,7.70
2014,03,05,16,25,7.60
2014,03,05,16,26,7.60
2014,03,05,16,27,7.60
2014,03,05,16,28,7.60
2014,03,05,16,29,7.60
2014,03,05,16,30,7.60
2014,03,05,16,31,7.60
2014,03,05,16,32,7.50
2014,03,05,16,33,7.50
2014,03,05,16,34,7.50
2014,03,05,16,35,7.50
2014,03,05,16,36,7.40
2014,03,05,16,37,7.40
2014,03,05,16,38,7.40
2014,03,05,16,39,7.40
2014,03,05,16,40,7.40
2014,03,05,16,41,7.40
2014,03,05,16,42,7.40
2014,03,05,16,43,7.40
2014,03,05,16,44,7.40
2014,03,05,16,45,7.40
2014,03,05,16,46,7.40
2014,03,05,16,47,7.40
2014,03,05,16,48,7.40
2014,03,05,16,49,7.40
2014,03,05,16,50,7.40
2014,03,05,16,51,7.40
2014,03,05,16,52,7.40
2014,03,05,16,53,7.40
2014,03,05,16,54,7.40
2014,03,05,16,55,7.40
2014,03,05,16,56,7.40
2014,03,05,16,57,7.40
2014,03,05,16,58,7.40
2014,03,05,16,59,7.30
2014,03,05,17,00,7.30
2014,03,05,17,01,7.30
2014,03,05,17,02,7.30
2014,03,05,17,03,7.30
2014,03,05,17,04,7.30
2014,03,05,17,05,7.30
2014,03,05,17,06,7.20
2014,03,05,17,07,7.20
2014,03,05,17,08,7.20
2014,03,05,17,09,7.20
2014,03,05,17,10,7.20
2014,03,05,17,11,7.20
2014,03,05,17,12,7.20
2014,03,05,17,13,7.20
2014,03,05,17,14,7.20
2014,03,05,17,15,7.20
2014,03,05,17,16,7.20
2014,03,05,17,17,7.20
2014,03,05,17,18,7.20
2014,03,05,17,19,7.20
2014,03,05,17,20,7.20
2014,03,05,17,21,7.20
2014,03,05,17,22,7.20
2014,03,05,17,23,7.20
2014,03,05,17,24,7.20
2014,03,05,17,25,7.20
2014,03,05,17,26,7.20
2014,03,05,17,27,7.20
2014,03,05,17,28,7.20
2014,03,05,17,29,7.20
2014,03,05,17,30,7.20
2014,03,05,17,31,7.20
2014,03,05,17,32,7.20
2014,03,05,17,33,7.20
2014,03,05,17,34,7.20
2014,03,05,17,35,7.20
2014,03,05,17,36,7.20
2014,03,05,17,37,7.10
2014,03,05,17,38,7.10
2014,03,05,17,39,7.10
2014,03,05,17,40,7.10
2014,03,05,17,41,7.00
2014,03,05,17,42,7.00
2014,03,05,17,43,6.90
2014,03,05,17,44,6.90
2014,03,05,17,45,6.90
2014,03,05,17,46,6.90
2014,03,05,17,47,6.80
2014,03,05,17,48,6.80
2014,03,05,17,49,6.80
2014,03,05,17,50,6.80
2014,03,05,17,51,6.80
2014,03,05,17,52,6.80
2014,03,05,17,53,6.80
2014,03,05,17,54,6.80
2014,03,05,17,55,6.80
2014,03,05,17,56,6.80
2014,03,05,17,57,6.80
2014,03,05,17,58,6.80
2014,03,05,17,59,6.80
2014,03,05,18,00,6.80
2014,03,05,18,01,6.80
2014,03,05,18,02,6.80
2014,03,05,18,03,6.80
2014,03,05,18,04,6.80
2014,03,05,18,05,6.90
2014,03,05,18,06,6.90
2014,03,05,18,07,6.90
2014,03,05,18,08,6.90
2014,03,05,18,09,6.90
2014,03,05,18,10,6.90
2014,03,05,18,11,6.90
2014,03,05,18,12,6.80
2014,03,05,18,13,6.80
2014,03,05,18,14,6.80
2014,03,05,18,15,6.80
2014,03,05,18,16,6.80
2014,03,05,18,17,6.80
2014,03,05,18,18,6.80
2014,03,05,18,19,6.80
2014,03,05,18,20,6.80
2014,03,05,18,21,6.80
2014,03,05,18,22,6.80
2014,03,05,18,23,6.80
2014,03,05,18,24,6.80
2014,03,05,18,25,6.80
2014,03,05,18,26,6.80
2014,03,05,18,27,6.80
2014,03,05,18,28,6.80
2014,03,05,18,29,6.80
2014,03,05,18,30,6.80
2014,03,05,18,31,6.80
2014,03,05,18,32,6.90
2014,03,05,18,33,6.90
2014,03,05,18,34,6.90
2014,03,05,18,35,6.90
2014,03,05,18,36,6.90
2014,03,05,18,37,6.90
2014,03,05,18,38,6.90
2014,03,05,18,39,6.80
2014,03,05,18,40,6.80
2014,03,05,18,41,6.80
2014,03,05,18,42,6.80
2014,03,05,18,43,6.80
2014,03,05,18,44,6.80
2014,03,05,18,45,6.80
2014,03,05,18,46,6.80
2014,03,05,18,47,6.70
2014,03,05,18,48,6.70
2014,03,05,18,49,6.70
2014,03,05,18,50,6.60
2014,03,05,18,51,6.60
2014,03,05,18,52,6.60
2014,03,05,18,53,6.50
2014,03,05,18,54,6.50
2014,03,05,18,55,6.50
2014,03,05,18,56,6.50
2014,03,05,18,57,6.50
2014,03,05,18,58,6.50
2014,03,05,18,59,6.50
2014,03,05,19,00,6.50
2014,03,05,19,01,6.60
2014,03,05,19,02,6.60
2014,03,05,19,03,6.60
2014,03,05,19,04,6.60
2014,03,05,19,05,6.60
2014,03,05,19,06,6.60
2014,03,05,19,07,6.60
2014,03,05,19,08,6.60
2014,03,05,19,09,6.60
2014,03,05,19,10,6.60
2014,03,05,19,11,6.60
2014,03,05,19,12,6.60
2014,03,05,19,13,6.60
2014,03,05,19,14,6.60
2014,03,05,19,15,6.60
2014,03,05,19,16,6.50
2014,03,05,19,17,6.50
2014,03,05,19,18,6.50
2014,03,05,19,19,6.40
2014,03,05,19,20,6.40
2014,03,05,19,21,6.40
2014,03,05,19,22,6.40
2014,03,05,19,23,6.40
2014,03,05,19,24,6.30
2014,03,05,19,25,6.30
2014,03,05,19,26,6.30